• en France
  • Liste des pays
  • À 7 jours
  • Température de l'eau
  • Carte satellitaire
  • Carte météo
  • Widgets météo
  • user-avatar
    Se connecter

    Météo par heure à Phenian

    Ce jour, 20 Février, Mardi

    Heure Température Précipitation Vent Pression Humidité
    00:00 -1°C° 0 mm 1 m/s 767 mmHg 51%
    01:00 -1°C° 0 mm 1 m/s 767 mmHg 49%
    02:00 -1°C° 0 mm 1 m/s 766 mmHg 52%
    03:00 -1°C° 0 mm 1 m/s 766 mmHg 51%
    04:00 -2°C° 0 mm 1 m/s 766 mmHg 49%
    05:00 -2°C° 0 mm 1 m/s 766 mmHg 48%
    06:00 -3°C° 0 mm 2 m/s 766 mmHg 43%
    07:00 -3°C° 0 mm 2 m/s 766 mmHg 38%
    08:00 -2°C° 0 mm 3 m/s 767 mmHg 34%
    09:00 -1°C° 0 mm 3 m/s 767 mmHg 30%
    10:00 -1°C° 0 mm 4 m/s 767 mmHg 26%
    11:00 -1°C° 0 mm 5 m/s 767 mmHg 22%
    12:00 0°C° 0 mm 5 m/s 766 mmHg 23%
    13:00 0°C° 0 mm 5 m/s 766 mmHg 24%
    14:00 -1°C° 0 mm 6 m/s 766 mmHg 25%
    15:00 -1°C° 0 mm 5 m/s 766 mmHg 28%
    16:00 -2°C° 0 mm 5 m/s 766 mmHg 32%
    17:00 -3°C° 0 mm 4 m/s 766 mmHg 35%
    18:00 -4°C° 0 mm 4 m/s 766 mmHg 36%
    19:00 -4°C° 0 mm 4 m/s 767 mmHg 37%
    20:00 -5°C° 0 mm 4 m/s 767 mmHg 38%
    21:00 -5°C° 0 mm 4 m/s 767 mmHg 36%
    22:00 -5°C° 0 mm 4 m/s 767 mmHg 33%
    23:00 -5°C° 0 mm 4 m/s 768 mmHg 31%

    Demain, 21 Février, Mercredi

    Heure Température Précipitation Vent Pression Humidité
    00:00 -7°C° 0 mm 4 m/s 768 mmHg 31%
    01:00 -7°C° 0 mm 4 m/s 768 mmHg 31%
    02:00 -6°C° 0 mm 3 m/s 768 mmHg 31%
    03:00 -6°C° 0 mm 3 m/s 768 mmHg 32%
    04:00 -7°C° 0 mm 3 m/s 768 mmHg 33%
    05:00 -7°C° 0 mm 3 m/s 768 mmHg 34%
    06:00 -7°C° 0 mm 3 m/s 768 mmHg 32%
    07:00 -6°C° 0 mm 3 m/s 768 mmHg 31%
    08:00 -5°C° 0 mm 2 m/s 768 mmHg 29%
    09:00 -5°C° 0 mm 3 m/s 768 mmHg 26%
    10:00 -4°C° 0 mm 3 m/s 768 mmHg 23%
    11:00 -3°C° 0 mm 4 m/s 768 mmHg 21%
    12:00 -2°C° 0 mm 4 m/s 767 mmHg 22%
    13:00 -2°C° 0 mm 5 m/s 767 mmHg 23%
    14:00 -2°C° 0 mm 5 m/s 766 mmHg 24%
    15:00 -2°C° 0 mm 5 m/s 766 mmHg 28%
    16:00 -3°C° 0 mm 4 m/s 766 mmHg 32%
    17:00 -4°C° 0 mm 4 m/s 766 mmHg 37%
    18:00 -4°C° 0 mm 3 m/s 766 mmHg 41%
    19:00 -4°C° 0 mm 2 m/s 766 mmHg 46%
    20:00 -2°C° 0 mm 1 m/s 766 mmHg 50%
    21:00 -2°C° 0 mm 1 m/s 766 mmHg 51%
    22:00 -2°C° 0 mm 1 m/s 767 mmHg 53%
    23:00 -2°C° 0 mm 1 m/s 767 mmHg 54%

    Après-demain, 22 Février, Jeudi

    Heure Température Précipitation Vent Pression Humidité
    00:00 -2°C° 0 mm 1 m/s 767 mmHg 55%
    01:00 -3°C° 0 mm 1 m/s 766 mmHg 57%
    02:00 -3°C° 0 mm 1 m/s 766 mmHg 58%
    03:00 -5°C° 0 mm 2 m/s 766 mmHg 59%
    04:00 -5°C° 0 mm 2 m/s 765 mmHg 60%
    05:00 -5°C° 0 mm 2 m/s 765 mmHg 61%
    06:00 -4°C° 0 mm 2 m/s 765 mmHg 59%
    07:00 -4°C° 0 mm 2 m/s 765 mmHg 57%
    08:00 -3°C° 0 mm 2 m/s 765 mmHg 55%
    09:00 -2°C° 0 mm 4 m/s 764 mmHg 53%
    10:00 0°C° 0 mm 5 m/s 764 mmHg 50%
    11:00 +2°C° 0 mm 6 m/s 764 mmHg 48%
    12:00 +2°C° 0,2 mm 7 m/s 763 mmHg 49%
    13:00 +3°C° 0,2 mm 7 m/s 762 mmHg 50%
    14:00 +2°C° 0,2 mm 8 m/s 761 mmHg 50%
    15:00 +2°C° 0,2 mm 7 m/s 761 mmHg 59%
    16:00 +1°C° 0,2 mm 5 m/s 760 mmHg 68%
    17:00 0°C° 0,2 mm 4 m/s 760 mmHg 77%
    18:00 +1°C° 0,6 mm 3 m/s 760 mmHg 81%
    19:00 0°C° 0,6 mm 3 m/s 760 mmHg 86%
    20:00 0°C° 0,6 mm 3 m/s 760 mmHg 91%
    21:00 -1°C° 0,1 mm 3 m/s 760 mmHg 86%
    22:00 -3°C° 0,1 mm 4 m/s 760 mmHg 81%
    23:00 -3°C° 0,1 mm 4 m/s 761 mmHg 76%

    23 Février, Vendredi

    Heure Température Précipitation Vent Pression Humidité
    00:00 -4°C° 0 mm 4 m/s 761 mmHg 79%
    01:00 -4°C° 0 mm 3 m/s 761 mmHg 81%
    02:00 -5°C° 0 mm 3 m/s 762 mmHg 84%
    03:00 -4°C° 0 mm 2 m/s 762 mmHg 81%
    04:00 -4°C° 0 mm 2 m/s 762 mmHg 78%
    05:00 -3°C° 0 mm 1 m/s 763 mmHg 75%
    06:00 -2°C° 0 mm 1 m/s 763 mmHg 68%
    07:00 -1°C° 0 mm 1 m/s 763 mmHg 62%
    08:00 0°C° 0 mm 1 m/s 764 mmHg 56%
    09:00 -1°C° 0 mm 2 m/s 764 mmHg 50%
    10:00 +1°C° 0 mm 3 m/s 763 mmHg 45%
    11:00 +1°C° 0 mm 5 m/s 763 mmHg 39%
    12:00 +2°C° 0 mm 6 m/s 763 mmHg 40%
    13:00 +2°C° 0 mm 7 m/s 763 mmHg 41%
    14:00 +2°C° 0 mm 8 m/s 763 mmHg 43%
    15:00 0°C° 0 mm 7 m/s 763 mmHg 44%
    16:00 -1°C° 0 mm 6 m/s 763 mmHg 46%
    17:00 -1°C° 0 mm 5 m/s 764 mmHg 48%
    18:00 -2°C° 0 mm 5 m/s 765 mmHg 49%
    19:00 -4°C° 0 mm 5 m/s 766 mmHg 50%
    20:00 -5°C° 0 mm 5 m/s 767 mmHg 51%
    21:00 -4°C° 0 mm 4 m/s 768 mmHg 49%
    22:00 -5°C° 0 mm 4 m/s 768 mmHg 46%
    23:00 -5°C° 0 mm 4 m/s 769 mmHg 44%

    24 Février, Samedi

    Heure Température Précipitation Vent Pression Humidité
    00:00 -7°C° 0 mm 4 m/s 769 mmHg 43%
    01:00 -7°C° 0 mm 4 m/s 770 mmHg 43%
    02:00 -8°C° 0 mm 4 m/s 770 mmHg 42%
    03:00 -8°C° 0 mm 4 m/s 771 mmHg 44%
    04:00 -8°C° 0 mm 4 m/s 771 mmHg 46%
    05:00 -9°C° 0 mm 4 m/s 771 mmHg 48%
    06:00 -9°C° 0 mm 4 m/s 772 mmHg 47%
    07:00 -7°C° 0 mm 3 m/s 772 mmHg 47%
    08:00 -7°C° 0 mm 3 m/s 773 mmHg 46%
    09:00 -6°C° 0 mm 3 m/s 773 mmHg 42%
    10:00 -5°C° 0 mm 3 m/s 772 mmHg 37%
    11:00 -4°C° 0 mm 3 m/s 772 mmHg 33%
    12:00 -2°C° 0 mm 3 m/s 772 mmHg 31%
    13:00 -2°C° 0 mm 3 m/s 771 mmHg 30%
    14:00 -1°C° 0 mm 3 m/s 771 mmHg 28%
    15:00 -2°C° 0 mm 3 m/s 771 mmHg 31%
    16:00 -2°C° 0 mm 3 m/s 771 mmHg 34%
    17:00 -3°C° 0 mm 2 m/s 771 mmHg 37%
    18:00 -3°C° 0 mm 2 m/s 771 mmHg 40%
    19:00 -4°C° 0 mm 2 m/s 771 mmHg 43%
    20:00 -4°C° 0 mm 2 m/s 771 mmHg 46%
    21:00 -2°C° 0 mm 1 m/s 771 mmHg 46%
    22:00 -3°C° 0 mm 1 m/s 771 mmHg 46%
    23:00 -3°C° 0 mm 1 m/s 771 mmHg 46%

    25 Février, Dimanche

    Heure Température Précipitation Vent Pression Humidité
    00:00 -3°C° 0 mm 1 m/s 771 mmHg 47%
    01:00 -3°C° 0 mm 1 m/s 771 mmHg 47%
    02:00 -3°C° 0 mm 1 m/s 771 mmHg 47%
    03:00 -4°C° 0 mm 1 m/s 771 mmHg 47%
    04:00 -4°C° 0 mm 1 m/s 771 mmHg 48%
    05:00 -4°C° 0 mm 1 m/s 771 mmHg 48%
    06:00 -4°C° 0 mm 1 m/s 771 mmHg 45%
    07:00 -3°C° 0 mm 1 m/s 771 mmHg 42%
    08:00 -2°C° 0 mm 1 m/s 771 mmHg 40%
    09:00 -1°C° 0 mm 1 m/s 771 mmHg 35%
    10:00 0°C° 0 mm 1 m/s 771 mmHg 29%
    11:00 +2°C° 0 mm 1 m/s 770 mmHg 24%
    12:00 +3°C° 0 mm 1 m/s 769 mmHg 24%
    13:00 +3°C° 0 mm 1 m/s 769 mmHg 24%
    14:00 +4°C° 0 mm 1 m/s 768 mmHg 23%
    15:00 +3°C° 0 mm 1 m/s 768 mmHg 28%
    16:00 +2°C° 0 mm 1 m/s 768 mmHg 32%
    17:00 +2°C° 0 mm 1 m/s 768 mmHg 36%
    18:00 0°C° 0 mm 0 m/s 768 mmHg 37%
    19:00 0°C° 0 mm 0 m/s 768 mmHg 38%
    20:00 -1°C° 0 mm 0 m/s 768 mmHg 39%
    21:00 -1°C° 0 mm 0 m/s 768 mmHg 39%
    22:00 -1°C° 0 mm 0 m/s 768 mmHg 39%
    23:00 0°C° 0 mm 1 m/s 768 mmHg 39%
    Voir plus